User: anonymous   Login
Location: Cussy
(47.0410°N, 4.6412°E)
Time: 16:45:00
(UTC+00:00)
Language:

Cosmos 1943 Rocket - Orbit

View from above orbital plane
View from above orbital plane
View from above satellite
View from above satellite

Ground track
Ground track

The orbit data is extracted from the following two-line orbital elements,

1 19120U 88039B   21063.05615763 -.00000129  00000-0 -38546-4 0  9990
2 19120  71.0174 339.9700 0024287 269.0734  90.7608 14.19219021698755
Epoch (UTC): 04 March 2021 01:20:52
Eccentricity: 0.0024287
inclination: 71.0174°
perigee height: 810 km
apogee height: 845 km
right ascension of ascending node: 339.9700°
argument of perigee: 269.0734°
revolutions per day: 14.19219021
mean anomaly at epoch: 90.7608°
orbit number at epoch: 69875

The dashed part of the orbit path shows where the satellite is in the earth's shadow,  

DLR